[[{"header":{"parameterUnit":"m.s-1","parameterCategory":1,"la1":30.2991,"la2":30.254,"lo1":-89.0895,"lo2":-89.0444,"dy":0.0017,"dx":0.0017,"nx":28,"ny":28,"refTime":"2025-02-10T03:00:00:Z","depth":0,"parameterNumber":2,"parameterNumberName":"U-component_of_WINDS"},"data":[0,0,0,0,0,0,0,0,0,0,0,0,0,0,0,0,0,0,0,0,0,0,0,0,0,0,0,0,0,0,0,0,0,0,0,0,0,0,0,0,0,0,0,0,0,0,0,0,0,0,0,0,0,0,0,0,0,0,-0.6274,-0.6273,0,-0.6174,-0.6173,-0.6172,-0.6124,-0.6124,-0.6124,-0.6124,-0.602,-0.6017,-0.6014,0,0,0,0,0,0,0,0,0,0,0,0,0,-0.6423,-0.642,-0.6275,-0.6273,-0.6272,-0.6174,-0.6173,-0.6171,-0.6124,-0.6124,-0.6124,-0.6124,-0.6021,-0.6017,-0.6014,0,0,0,0,0,0,0,0,0,0,0,0,0,-0.6344,-0.6419,-0.6275,-0.6237,-0.6232,-0.6175,-0.6173,-0.6171,-0.6124,-0.6124,-0.6124,-0.6125,-0.6022,-0.6018,-0.6013,-0.5985,0,0,-0.6,-0.5999,0,0,0,0,0,0,0,0,-0.6348,-0.6339,-0.6244,-0.6239,-0.6234,-0.6162,-0.6187,-0.6109,-0.6124,-0.6165,-0.6124,-0.6125,-0.6067,-0.6059,-0.604,-0.598,-0.5976,-0.6,-0.5997,-0.5996,-0.5994,0,0,0,0,0,0,0,-0.6354,-0.6343,-0.6235,-0.6242,-0.6237,-0.6224,-0.6213,-0.6172,-0.6117,-0.6162,-0.6158,-0.6147,-0.6064,-0.6044,-0.6037,-0.5974,-0.6,-0.5996,-0.5994,-0.5992,-0.5885,-0.5885,0,0,0,0,0,0,-0.6366,-0.6347,-0.6238,-0.6232,-0.6293,-0.6221,-0.6209,-0.6185,-0.6117,-0.6107,-0.6147,-0.6145,-0.6051,-0.6042,-0.6033,-0.5994,-0.5996,-0.5992,-0.5989,-0.5885,-0.5885,-0.5885,0,0,0,0,0,0,-0.6369,-0.6357,-0.6242,-0.6288,-0.6273,-0.6218,-0.6192,-0.6183,-0.6163,-0.6106,-0.6096,-0.6136,-0.6051,-0.6039,-0.5997,-0.599,-0.599,-0.5986,-0.5886,-0.5885,-0.5885,-0.5918,0,0,0,0,0,0,-0.6374,-0.6358,-0.6348,-0.6289,-0.6271,-0.6209,-0.6192,-0.6181,-0.6156,-0.6152,-0.6093,-0.6084,-0.605,-0.6004,-0.5993,-0.5984,-0.5982,-0.5886,-0.5885,-0.5885,-0.5917,-0.5918,-0.592,0,0,0,0,0,-0.6379,-0.6361,-0.6347,-0.6334,-0.6257,-0.6209,-0.6198,-0.616,-0.6155,-0.6144,-0.6107,-0.6086,-0.5993,-0.6,-0.5987,-0.5977,-0.5886,-0.5885,-0.5885,-0.5916,-0.5918,-0.592,0,0,0,0,0,0,-0.642,-0.6353,-0.6337,-0.6299,-0.626,-0.6201,-0.6185,-0.6164,-0.6125,-0.6123,-0.6077,-0.6064,-0.6026,-0.5998,-0.6007,-0.5945,-0.5937,-0.5934,-0.5966,-0.5967,-0.5968,-0.5976,-0.5979,0,0,0,0,0,-0.6425,-0.6392,-0.6335,-0.6307,-0.6288,-0.624,-0.6218,-0.6192,-0.6149,-0.6132,-0.6093,-0.6052,-0.6013,-0.5988,-0.595,-0.5913,-0.5898,-0.5899,-0.5901,-0.5902,-0.59,-0.5876,-0.5876,-0.5882,-0.5882,-0.5882,0,0,-0.6434,-0.6393,-0.6375,-0.6314,-0.6281,-0.6247,-0.6226,-0.6192,-0.6166,-0.6127,-0.6085,-0.6054,-0.6005,-0.5965,-0.5946,-0.594,-0.5895,-0.5901,-0.5903,-0.5899,-0.5876,-0.5875,-0.5874,-0.5882,-0.5882,-0.5882,0,0,-0.6433,-0.64,-0.6372,-0.6339,-0.6289,-0.6257,-0.625,-0.6194,-0.6172,-0.6129,-0.6099,-0.6067,-0.6002,-0.5968,-0.5942,-0.5927,-0.5905,-0.5916,-0.5923,-0.59,-0.59,-0.5899,-0.5892,-0.5891,-0.5914,-0.5914,-0.5914,0,-0.6451,-0.64,-0.6361,-0.6327,-0.63,-0.6264,-0.6235,-0.6204,-0.6144,-0.6126,-0.6121,-0.6037,-0.6002,-0.5953,-0.5949,-0.593,-0.592,-0.5922,-0.5903,-0.5902,-0.5901,-0.5894,-0.5892,-0.5915,-0.5915,-0.5915,-0.5915,0,-0.6423,-0.6388,-0.6371,-0.6314,-0.6286,-0.6255,-0.621,-0.6185,-0.6162,-0.613,-0.6086,-0.6042,-0.5993,-0.598,-0.5957,-0.5927,-0.5925,-0.5912,-0.5903,-0.5902,-0.5895,-0.5892,-0.5917,-0.5917,-0.5916,-0.5916,0,0,-0.6445,-0.6366,-0.6361,-0.6334,-0.6275,-0.6247,-0.6214,-0.6166,-0.6146,-0.6105,-0.6075,-0.6021,-0.6008,-0.5979,-0.5951,-0.5932,-0.5921,-0.5921,-0.5919,-0.5921,-0.5884,-0.5893,-0.5891,-0.5907,-0.5906,-0.5905,-0.5887,0,-0.6436,-0.6375,-0.6339,-0.6293,-0.6259,-0.6223,-0.6194,-0.6154,-0.6123,-0.6089,-0.6055,-0.6016,-0.6003,-0.5985,-0.5964,-0.5927,-0.5913,-0.5928,-0.5877,-0.5876,-0.589,-0.5887,-0.5897,-0.5882,-0.5884,-0.5884,-0.5884,0,-0.6417,-0.6377,-0.6328,-0.6272,-0.6256,-0.6231,-0.6183,-0.6152,-0.6105,-0.6084,-0.6051,-0.6023,-0.5985,-0.598,-0.5926,-0.5937,-0.5914,-0.5893,-0.5891,-0.5884,-0.5879,-0.5879,-0.5877,-0.5874,-0.5879,-0.5879,-0.588,0,-0.6436,-0.6371,-0.6332,-0.631,-0.6244,-0.6227,-0.6199,-0.6152,-0.6126,-0.6085,-0.6066,-0.6021,-0.5996,-0.5961,-0.5922,-0.5921,-0.5871,-0.5863,-0.5852,-0.5853,-0.5842,-0.5843,-0.5835,-0.5829,-0.5829,-0.5829,-0.583,0,-0.6429,-0.64,-0.634,-0.6316,-0.6282,-0.624,-0.6207,-0.6175,-0.6134,-0.6103,-0.6069,-0.604,-0.599,-0.5955,-0.5923,-0.5883,-0.5872,-0.5853,-0.5845,-0.5855,-0.5858,-0.5839,-0.5839,-0.5829,-0.5829,-0.5829,-0.5829,0,-0.6445,-0.6404,-0.636,-0.6301,-0.6285,-0.6262,-0.6211,-0.6186,-0.6154,-0.6114,-0.6102,-0.6051,-0.6007,-0.5964,-0.5906,-0.5884,-0.5844,-0.5834,-0.586,-0.5855,-0.5846,-0.5847,-0.5824,-0.5819,-0.5818,-0.5818,-0.5818,0,-0.6443,-0.6419,-0.6358,-0.6335,-0.6307,-0.627,-0.6243,-0.62,-0.6172,-0.6117,-0.6099,-0.6053,-0.6013,-0.5945,-0.5902,-0.5856,-0.5844,-0.5839,-0.5837,-0.5848,-0.5842,-0.5844,-0.584,-0.584,-0.5841,-0.5841,-0.5841,0,-0.6442,-0.6423,-0.6385,-0.634,-0.6308,-0.627,-0.6231,-0.6214,-0.6163,-0.6133,-0.6089,-0.6058,-0.5998,-0.5952,-0.5902,-0.5871,-0.5847,-0.5842,-0.5837,-0.5847,-0.5862,-0.5852,-0.5862,-0.5843,-0.5842,-0.5842,-0.5842,-0.5842,-0.6448,-0.6425,-0.6378,-0.6336,-0.6303,-0.6266,-0.624,-0.6203,-0.6165,-0.6113,-0.609,-0.6044,-0.5997,-0.5927,-0.5897,-0.5859,-0.5853,-0.5846,-0.5844,-0.5843,-0.5844,-0.5869,-0.585,-0.585,-0.585,-0.585,-0.585,0,-0.6445,-0.6413,-0.6375,-0.6321,-0.6288,-0.6269,-0.6224,-0.6197,-0.6158,-0.6116,-0.6078,-0.6026,-0.5981,-0.5934,-0.5886,-0.5865,-0.5853,-0.5854,-0.5855,-0.5848,-0.5853,-0.5862,-0.5865,-0.5865,-0.5865,-0.5865,-0.5865,-0.5865,-0.6439,-0.6399,-0.6374,-0.6316,-0.6283,-0.6239,-0.6215,-0.6181,-0.6147,-0.609,-0.6053,-0.6022,-0.5978,-0.5926,-0.5884,-0.5871,-0.5854,-0.5858,-0.5842,-0.5848,-0.5847,-0.5846,-0.5854,-0.5855,-0.5855,-0.5839,-0.5839,-0.5839]},{"header":{"parameterUnit":"m.s-1","parameterCategory":1,"la1":30.2991,"la2":30.254,"lo1":-89.0895,"lo2":-89.0444,"dy":0.0017,"dx":0.0017,"nx":28,"ny":28,"refTime":"2025-02-10T03:00:00:Z","depth":0,"parameterNumber":3,"parameterNumberName":"V-component_of_WINDS"},"data":[0,0,0,0,0,0,0,0,0,0,0,0,0,0,0,0,0,0,0,0,0,0,0,0,0,0,0,0,0,0,0,0,0,0,0,0,0,0,0,0,0,0,0,0,0,0,0,0,0,0,0,0,0,0,0,0,0,0,1.1403,1.1403,0,1.1384,1.1384,1.1384,1.1348,1.1348,1.1347,1.1346,1.1326,1.1326,1.1326,0,0,0,0,0,0,0,0,0,0,0,0,0,1.1408,1.1408,1.1403,1.1403,1.1403,1.1384,1.1384,1.1384,1.1348,1.1348,1.1347,1.1346,1.1326,1.1326,1.1326,0,0,0,0,0,0,0,0,0,0,0,0,0,1.1399,1.1409,1.1403,1.1383,1.1381,1.1384,1.1384,1.1384,1.1349,1.1348,1.1347,1.1346,1.1326,1.1326,1.1326,1.1348,0,0,1.1327,1.1327,0,0,0,0,0,0,0,0,1.14,1.1399,1.1386,1.1384,1.1382,1.1368,1.1378,1.1372,1.1349,1.1361,1.1346,1.1345,1.1341,1.1339,1.1338,1.1347,1.1346,1.1327,1.1327,1.1327,1.1327,0,0,0,0,0,0,0,1.1401,1.14,1.1396,1.1386,1.1384,1.1375,1.1372,1.1377,1.1357,1.136,1.1357,1.1355,1.1339,1.1338,1.1337,1.1346,1.1327,1.1327,1.1327,1.1327,1.1372,1.1373,0,0,0,0,0,0,1.1404,1.1401,1.1396,1.1395,1.1389,1.1375,1.1373,1.1373,1.1357,1.1353,1.1356,1.1354,1.1338,1.1337,1.1337,1.1362,1.1327,1.1327,1.1327,1.1371,1.1373,1.1374,0,0,0,0,0,0,1.1405,1.1404,1.1397,1.1397,1.1396,1.1376,1.1377,1.1373,1.1372,1.1354,1.135,1.1359,1.1337,1.1336,1.1346,1.1361,1.1327,1.1327,1.137,1.1372,1.1373,1.1412,0,0,0,0,0,0,1.1405,1.1405,1.1413,1.1398,1.1396,1.1407,1.1378,1.1374,1.1373,1.1369,1.1355,1.1352,1.1337,1.1346,1.1346,1.136,1.1327,1.1369,1.1371,1.1373,1.141,1.1415,1.142,0,0,0,0,0,1.1405,1.1424,1.1413,1.1413,1.1406,1.1408,1.1407,1.1389,1.1374,1.1382,1.1371,1.1352,1.1359,1.1347,1.1347,1.1362,1.1368,1.137,1.1373,1.1407,1.1414,1.142,0,0,0,0,0,0,1.1441,1.1422,1.141,1.1424,1.1418,1.1402,1.1411,1.1396,1.1394,1.1391,1.1368,1.1365,1.1378,1.137,1.1357,1.1382,1.136,1.1363,1.1387,1.1393,1.1398,1.14,1.1327,0,0,0,0,0,1.145,1.1454,1.1437,1.1451,1.1449,1.1431,1.1431,1.1418,1.141,1.1407,1.1396,1.139,1.139,1.1391,1.139,1.1408,1.1405,1.1418,1.1423,1.1428,1.1431,1.1441,1.1447,1.1382,1.1382,1.1382,0,0,1.147,1.146,1.1464,1.1458,1.1452,1.1456,1.1429,1.1434,1.1437,1.1408,1.1417,1.1408,1.1399,1.1414,1.1419,1.1408,1.1448,1.1431,1.1435,1.1435,1.1444,1.145,1.1456,1.1384,1.1384,1.1383,0,0,1.1509,1.1501,1.1513,1.1507,1.1498,1.1486,1.1489,1.1475,1.1469,1.1477,1.1456,1.1459,1.146,1.1455,1.1453,1.149,1.1474,1.1491,1.1518,1.1528,1.1533,1.1538,1.1553,1.1558,1.1493,1.1493,1.1493,0,1.1534,1.154,1.1521,1.1528,1.1527,1.1501,1.1513,1.1508,1.15,1.1499,1.1487,1.1488,1.148,1.1494,1.1503,1.1501,1.1505,1.1493,1.1534,1.1539,1.1542,1.1556,1.1562,1.1496,1.1495,1.1495,1.1495,0,1.1573,1.1578,1.1588,1.1582,1.1581,1.1591,1.1573,1.1575,1.1562,1.1551,1.1561,1.155,1.1548,1.1549,1.1536,1.1561,1.1555,1.1538,1.1516,1.1551,1.1564,1.1569,1.1499,1.1498,1.1497,1.1497,0,0,1.1634,1.1617,1.1621,1.1618,1.1607,1.161,1.1618,1.1617,1.1619,1.1614,1.1621,1.1623,1.1609,1.1606,1.1592,1.1601,1.1633,1.1583,1.1583,1.1595,1.1662,1.1676,1.1682,1.1622,1.1623,1.1623,1.1663,0,1.1671,1.1686,1.1669,1.1687,1.1692,1.1667,1.1675,1.1669,1.1659,1.1662,1.1651,1.1653,1.1633,1.1631,1.1639,1.1628,1.1647,1.1624,1.1629,1.163,1.1634,1.1688,1.1702,1.1741,1.1668,1.1669,1.1669,0,1.1717,1.1715,1.1734,1.1722,1.1724,1.1731,1.1729,1.1731,1.1724,1.1716,1.1714,1.1697,1.1705,1.1683,1.1694,1.1679,1.168,1.1675,1.1676,1.1677,1.1653,1.1693,1.1752,1.1759,1.1677,1.1676,1.1676,0,1.1762,1.1763,1.1775,1.1773,1.176,1.1766,1.176,1.1752,1.1752,1.175,1.175,1.1748,1.1748,1.1747,1.1731,1.1715,1.1745,1.172,1.1739,1.174,1.1748,1.1748,1.181,1.1746,1.1746,1.1745,1.1745,0,1.1806,1.1819,1.1796,1.1803,1.1817,1.1797,1.1812,1.1803,1.1797,1.1802,1.178,1.1786,1.1763,1.1767,1.1754,1.1766,1.1766,1.176,1.1757,1.1763,1.1765,1.1765,1.1762,1.1747,1.1747,1.1746,1.1746,0,1.1859,1.1843,1.1855,1.1842,1.1838,1.185,1.1838,1.1844,1.1833,1.1841,1.1842,1.1824,1.1828,1.1811,1.1811,1.1802,1.1822,1.1813,1.1824,1.1822,1.1843,1.1842,1.1909,1.1918,1.1846,1.1847,1.1848,0,1.1889,1.1899,1.1886,1.1889,1.1885,1.1889,1.189,1.187,1.1872,1.1865,1.1872,1.1874,1.1874,1.188,1.1868,1.1868,1.186,1.1883,1.186,1.1866,1.1863,1.1863,1.1865,1.1889,1.189,1.1891,1.1891,0,1.1945,1.1937,1.1939,1.1938,1.194,1.1938,1.1935,1.1939,1.1918,1.192,1.1924,1.1924,1.1924,1.1927,1.1924,1.1919,1.1902,1.1898,1.1903,1.1911,1.1918,1.1916,1.184,1.1897,1.1897,1.1896,1.1896,1.1896,1.1988,1.1996,1.1989,1.1992,1.1988,1.1986,1.1992,1.1982,1.1985,1.1984,1.1972,1.1978,1.1971,1.1967,1.1963,1.1967,1.1956,1.1963,1.1965,1.1967,1.1972,1.1916,1.1967,1.1966,1.1966,1.1966,1.1966,0,1.2045,1.2039,1.2042,1.2039,1.2042,1.2025,1.2021,1.2025,1.2031,1.2026,1.2027,1.2031,1.2033,1.2021,1.2022,1.2028,1.2021,1.2029,1.2029,1.2029,1.198,1.1977,1.2035,1.2035,1.2035,1.2035,1.2035,1.2035,1.2074,1.2088,1.2079,1.209,1.2084,1.2091,1.209,1.2088,1.2084,1.2091,1.2093,1.2085,1.2077,1.2077,1.2079,1.2075,1.2077,1.2089,1.2083,1.2038,1.2032,1.2025,1.2022,1.2089,1.2089,1.2131,1.2131,1.2131]}]]